CAPE
0 0 0 0 0 0 0 0 0 0 0 0 0 0 0 0 0 0 0 0 0 0 0 0 0 0 0 0 0 0 0 0 0 0 0 0 0 0 0 0 0 0 0 0 0
0 0 0 0 0 0 0 0 0 0 0 0 0 0 0 0 0 0 0 0 0 0 0 0 0 0 0 0 0 0 0 0 0 0 0 0 0 0 0 0 0 0 0 0 0
0 0 0 0 0 0 0 0 0 0 0 0 0 0 0 0 0 0 0 0 0 0 0 0 0 0 0 0 0 0 0 0 0 0 0 0 0 0 0 0 0 0 0 0 0
0 0 0 0 0 0 0 0 0 0 0 0 0 0 0 0 0 0 0 0 0 0 0 0 0 0 0 0 0 0 0 0 0 0 0 0 0 0 0 0 0 0 0 0 0
0 0 0 0 0 0 0 0 0 0 1 1 1 0 0 0 0 0 0 0 0 0 0 0 0 0 0 0 0 0 0 0 0 0 0 0 0 0 0 0 0 0 0 0 0
0 0 0 0 0 0 0 0 0 1 1 1 2 0 0 0 0 0 0 0 0 0 0 0 0 0 0 0 0 0 0 0 0 0 0 0 0 0 0 0 0 0 0 0 0
0 0 0 0 0 0 0 0 0 0 0 1 1 0 0 0 0 0 0 0 0 0 0 0 0 0 0 0 0 0 0 0 0 0 0 0 0 0 0 0 0 0 0 0 0
0 0 0 0 0 0 0 0 0 0 0 0 1 0 0 0 0 0 0 0 0 0 0 0 0 0 0 0 0 0 0 0 0 0 0 0 0 0 0 0 0 0 0 0 0
0 0 0 0 0 0 0 0 0 0 0 0 0 0 0 0 0 0 0 0 0 0 0 0 0 0 0 0 0 0 0 0 0 0 0 0 0 0 0 0 0 0 0 0 0
0 0 0 0 0 0 0 0 0 0 0 0 0 0 0 0 0 0 0 0 0 0 0 0 0 0 0 0 0 0 0 0 0 0 0 0 0 0 0 0 0 0 0 0 0
0 0 0 0 0 0 0 0 0 0 0 0 0 0 0 0 0 0 0 0 0 0 0 0 0 0 0 0 0 0 0 0 0 0 0 0 0 0 0 0 0 0 0 0 0
0 0 0 0 0 0 0 0 0 0 0 0 0 0 0 0 0 0 0 0 0 0 0 0 0 0 0 0 0 0 0 0 0 0 0 0 0 0 0 0 0 0 0 0 0
0 0 0 0 0 0 0 0 0 0 0 0 0 0 0 0 0 0 0 0 0 0 0 0 0 0 0 0 0 0 0 0 0 0 0 0 0 0 0 0 0 0 0 0 0
0 0 0 0 0 0 0 0 0 0 0 0 0 0 0 0 0 0 0 0 0 0 0 0 0 0 0 0 0 0 0 0 0 0 0 0 0 0 0 0 0 0 0 0 0
0 0 0 1 8 0 0 0 0 0 0 0 0 0 0 0 0 0 0 0 0 0 0 0 0 0 0 0 0 0 0 0 0 0 0 0 0 0 0 0 0 0 0 0 0
0 0 0 1 3 0 0 0 0 1 5 0 0 0 0 0 0 0 0 0 0 0 0 0 0 0 0 0 0 0 0 0 0 0 0 0 0 0 0 0 0 0 0 0 0
0 0 0 0 3 0 0 0 17 12 0 0 0 0 0 0 0 0 0 0 0 0 0 0 0 0 0 0 0 0 0 0 0 10 0 0 0 0 0 0 0 0 0 0 0
0 0 1 0 0 0 0 13 12 1 1 0 0 0 0 0 0 0 0 0 0 0 0 0 0 0 0 0 0 0 0 20 16 5 14 0 0 0 0 0 0 0 0 0 0
0 0 1 22 0 0 40 16 3 0 0 0 0 0 0 5 0 2 6 0 0 0 0 1 0 0 0 0 0 0 0 0 0 0 2 0 0 0 0 0 0 0 0 0 0
0 0 0 0 0 56 36 2 0 0 0 0 0 0 0 9 6 2 0 0 0 0 0 0 0 0 0 0 0 0 0 8 0 9 7 0 0 0 0 0 0 0 0 0 0
0 0 0 0 48 83 14 6 0 0 4 20 5 18 5 12 11 29 2 3 0 0 0 1 31 0 0 0 0 0 0 0 0 5 13 13 0 0 0 0 0 0 0 0 0
0 0 11 14 52 28 16 0 0 0 0 0 6 17 8 0 0 21 16 19 13 9 9 20 18 14 0 0 0 2 2 0 36 1 23 21 16 0 0 0 0 0 0 0 0
0 0 21 51 10 14 3 0 0 3 1 11 18 18 18 21 28 1 11 12 0 0 33 36 35 59 0 0 0 19 1 30 52 51 49 69 17 0 0 0 0 0 0 0 0
0 0 35 42 26 7 4 2 12 22 18 13 8 18 31 26 24 13 4 11 0 11 0 16 8 38 45 0 4 34 18 32 42 86 65 91 39 28 5 0 0 0 0 0 0
0 0 0 20 27 29 7 0 2 6 12 3 7 8 6 7 2 3 5 10 7 2 4 50 37 13 16 13 10 13 10 2 6 2 19 10 26 2 0 0 1 0 0 0 0
0 0 0 0 0 18 10 3 4 5 1 0 0 0 13 4 1 0 0 6 2 0 15 26 22 16 0 0 0 3 0 0 1 5 10 15 28 0 0 0 0 0 0 0 0
2 0 0 0 0 4 9 1 0 4 1 0 0 0 0 0 0 0 0 0 0 3 4 6 22 8 5 0 5 14 0 0 1 3 13 35 5 0 0 0 0 0 0 0 0
CIN
0 0 0 0 0 0 0 0 0 0 0 0 0 0 0 0 0 0 0 0 0 0 0 0 0 0 0 0 0 0 0 0 0 0 0 0 0 0 0 0 0 0 0 0 0
0 0 0 0 0 0 0 0 0 0 0 0 0 0 0 0 0 0 0 0 0 0 0 0 0 0 0 0 0 0 0 0 0 0 0 0 0 0 0 0 0 0 0 0 0
0 0 0 0 0 0 0 0 0 0 0 0 0 0 0 0 0 0 0 0 0 0 0 0 0 0 0 0 0 0 0 0 0 0 0 0 0 0 0 0 0 0 0 0 0
0 0 0 0 0 0 0 0 0 0 0 0 0 0 0 0 0 0 0 0 0 0 0 0 0 0 0 0 0 0 0 0 0 0 0 0 0 0 0 0 0 0 0 0 0
0 0 0 0 0 0 0 0 0 0 0 0 0 0 0 0 0 0 0 0 0 0 0 0 0 0 0 0 0 0 0 0 0 0 0 0 0 0 0 0 0 0 0 0 0
0 0 0 0 0 0 0 0 0 0 0 0 0 0 0 0 0 0 0 0 0 0 0 0 0 0 0 0 0 0 0 0 0 0 0 0 0 0 0 0 0 0 0 0 0
0 0 0 0 0 0 0 0 0 0 0 0 0 0 0 0 0 0 0 0 0 0 0 0 0 0 0 0 0 0 0 0 0 0 0 0 0 0 0 0 0 0 0 0 0
0 0 0 0 0 0 0 0 0 0 0 0 0 0 0 0 0 0 0 0 0 0 0 0 0 0 0 0 0 0 0 0 0 0 0 0 0 0 0 0 0 0 0 0 0
0 0 0 0 0 0 0 0 0 0 0 0 0 0 0 0 0 0 0 0 0 0 0 0 0 0 0 0 0 0 0 0 0 0 0 0 0 0 0 0 0 0 0 0 0
0 0 0 0 0 0 0 0 0 0 0 0 0 0 0 0 0 0 0 0 0 0 0 0 0 0 0 0 0 0 0 0 0 0 0 0 0 0 0 0 0 0 0 0 0
0 0 0 0 0 0 0 0 0 0 0 0 0 0 0 0 0 0 0 0 0 0 0 0 0 0 0 0 0 0 0 0 0 0 0 0 0 0 0 0 0 0 0 0 0
0 0 0 0 0 0 0 0 0 0 0 0 0 0 0 0 0 0 0 0 0 0 0 0 0 0 0 0 0 0 0 0 0 0 0 0 0 0 0 0 0 0 0 0 0
0 0 0 0 0 0 0 0 0 0 0 0 0 0 0 0 0 0 0 0 0 0 0 0 0 0 0 0 0 0 0 0 0 0 0 0 0 0 0 0 0 0 0 0 0
0 0 0 0 0 0 0 0 0 0 0 0 0 0 0 0 0 0 0 0 0 0 0 0 0 0 0 0 0 0 0 0 0 0 0 0 0 0 0 0 0 0 0 0 0
0 0 0 -1 -10 0 0 0 0 0 0 0 0 0 0 0 0 0 0 0 0 0 0 0 0 0 0 0 0 0 0 0 0 0 0 0 0 0 0 0 0 0 0 0 0
0 0 0 0 0 0 0 0 0 0 0 0 0 0 0 0 0 0 0 0 0 0 0 0 0 0 0 0 0 0 0 0 0 0 0 0 0 0 0 0 0 0 0 0 0
0 0 0 0 -5 0 0 0 0 0 0 0 0 0 0 0 0 0 0 0 0 0 0 0 0 0 0 0 0 0 0 0 0 0 0 0 0 0 0 0 0 0 0 0 0
0 0 0 0 0 0 0 0 0 0 -1 0 0 0 0 0 0 0 0 0 0 0 0 0 0 0 0 0 0 0 0 0 0 0 0 0 0 0 0 0 0 0 0 0 0
0 0 0 -15 0 0 -1 0 -1 0 0 0 0 0 0 -22 0 -26 -36 0 0 0 0 -2 0 0 0 0 0 0 0 0 0 0 0 0 0 0 0 0 0 0 0 0 0
0 0 0 0 0 -7 0 0 0 0 0 0 0 0 0 -3 -5 -1 -1 0 0 0 0 0 0 0 0 0 0 0 0 -1 0 0 0 0 0 0 0 0 0 0 0 0 0
0 0 0 0 -23 -3 0 0 0 0 -2 -8 -10 -8 0 0 -4 -3 0 -2 0 0 0 -1 -2 0 0 0 0 0 0 0 0 0 0 0 0 0 0 0 0 0 0 0 0
0 0 0 -1 0 0 0 0 0 0 0 0 0 -3 -9 0 0 0 0 -1 -7 -3 -3 -2 -12 0 0 0 0 -35 -13 -3 -1 0 -1 -1 -4 0 0 0 0 0 0 0 0
0 0 -1 0 0 0 0 0 0 0 0 0 0 0 0 0 0 0 0 -3 -1 0 -1 -4 0 0 0 0 0 -35 -3 -4 0 -10 -3 -1 -5 0 0 0 0 0 0 0 0
0 0 0 -1 -1 0 0 0 0 -4 -2 -1 0 0 0 0 0 0 0 -7 0 -11 0 -5 -1 0 0 0 -1 -1 -5 -1 -8 -1 0 0 -1 -5 -11 0 0 0 0 0 0
0 0 0 0 0 0 0 0 0 0 -3 -2 0 0 0 0 0 0 0 0 -4 0 -2 0 0 0 0 0 0 0 0 0 0 0 0 0 0 -3 0 0 -1 0 0 0 0
0 0 0 0 0 0 0 0 0 0 -1 0 0 0 0 0 0 0 0 0 0 0 0 0 0 0 0 0 0 0 0 0 0 0 0 0 0 0 0 0 0 0 0 0 0
0 0 0 0 0 0 0 0 0 0 0 0 0 0 0 0 0 0 0 0 0 0 0 0 0 0 0 0 0 -1 0 0 0 0 0 0 -4 0 0 0 0 0 0 0 0
Wind_Speed
6 7 7 7 7 8 8 9 9 9 10 10 11 11 11 12 11 5 7 2 3 13 7 8 6 4 4 3 3 3 6 7 8 7 4 6 7 2 5 12 14 8 12 14 3
5 5 6 6 6 7 7 8 9 10 10 11 12 12 11 12 6 10 3 6 12 12 11 11 8 7 5 3 4 6 8 9 5 9 10 12 11 11 11 14 17 13 14 11 11
4 5 5 6 7 7 7 8 9 9 10 11 11 12 12 9 7 3 5 7 12 10 6 7 3 7 7 4 6 5 9 12 11 12 13 13 15 15 13 17 16 16 16 16 14
4 5 6 6 7 8 8 9 10 11 10 10 9 11 12 5 6 4 2 8 10 9 8 7 7 5 6 9 7 9 13 14 16 11 7 15 17 14 15 21 21 21 20 19 17
5 6 6 7 8 9 10 11 12 12 12 11 9 9 6 6 7 5 8 8 12 9 10 9 9 9 10 7 7 13 14 15 14 14 14 16 21 18 21 22 22 19 17 17 16
5 6 7 7 9 11 12 13 14 14 14 11 8 7 6 10 4 7 8 9 9 11 10 11 5 7 12 12 12 10 12 17 17 15 14 17 21 16 20 17 18 16 19 18 17
5 6 7 9 10 12 13 14 15 15 10 8 5 5 6 10 3 5 6 5 4 8 9 9 4 7 4 9 4 8 13 16 19 18 9 6 16 12 13 10 14 18 20 20 20
5 5 6 8 10 13 14 14 13 7 7 3 7 5 7 3 4 4 5 4 3 1 4 2 4 7 6 2 6 8 10 10 7 1 4 6 20 14 9 13 23 24 21 18 18
5 5 6 8 10 13 15 15 1 2 4 9 6 5 5 1 2 2 3 3 6 4 3 3 5 6 5 8 10 13 12 15 12 9 4 10 13 17 22 21 25 22 17 15 15
6 6 6 7 10 13 16 4 6 3 5 4 2 4 4 1 4 3 1 8 4 8 5 5 6 8 9 10 12 15 18 18 20 20 14 17 18 19 19 21 23 20 14 9 9
7 6 6 6 9 11 11 4 5 5 6 7 7 10 7 5 3 2 2 7 6 8 7 8 9 11 16 17 20 20 19 20 21 18 17 17 16 17 20 20 16 11 8 10 13
6 5 6 5 7 12 7 4 4 3 10 11 14 10 1 1 3 6 6 9 7 11 6 5 12 17 16 8 12 15 17 19 16 8 1 13 18 21 17 19 7 8 10 13 13
5 4 4 4 7 5 3 3 1 2 7 7 3 4 1 6 7 7 10 4 9 12 14 17 13 5 11 13 15 16 16 18 18 14 11 11 15 14 10 14 10 12 14 15 14
7 5 2 4 4 2 1 4 1 2 8 4 5 3 4 3 5 1 2 4 6 10 14 12 7 7 10 16 13 16 11 11 11 6 10 4 11 12 8 8 15 12 13 14 14
3 2 3 4 5 3 5 4 2 4 9 2 3 3 1 3 3 3 0 5 11 7 5 1 5 4 8 9 7 6 1 4 5 10 12 10 8 8 5 8 14 10 10 12 12
5 3 5 3 4 4 5 3 4 6 8 1 3 1 3 3 1 3 1 4 3 6 11 17 3 4 10 1 7 2 6 10 7 6 11 14 12 7 1 6 12 9 10 9 10
3 1 4 3 1 6 5 3 5 7 2 3 3 2 5 1 2 3 5 7 5 6 8 6 10 5 3 7 5 7 8 9 9 9 14 6 7 12 4 8 8 10 9 8 9
4 3 3 1 2 2 2 1 9 3 8 4 2 2 4 3 1 2 5 10 8 5 9 11 16 6 8 5 7 8 9 8 12 14 14 4 9 8 13 12 11 11 9 6 7
1 1 3 3 5 4 3 6 6 8 6 5 2 8 17 7 4 4 5 8 5 3 7 11 10 3 3 1 3 4 6 7 6 9 10 14 20 19 15 11 8 9 8 7 7
3 1 3 5 5 3 5 7 11 7 1 5 12 12 13 7 7 3 3 3 1 1 2 3 10 4 3 1 8 8 1 5 3 5 8 13 20 15 13 8 7 5 5 7 8
2 2 2 6 1 3 5 7 12 10 4 6 11 15 12 9 7 6 7 5 8 6 1 5 4 15 10 9 14 7 6 12 13 11 13 17 14 11 7 3 6 5 3 4 5
4 5 6 7 9 6 13 7 5 11 7 10 10 15 16 13 13 14 17 14 5 2 7 8 2 8 23 20 17 9 15 17 14 9 11 12 13 13 2 5 4 5 5 1 3
4 3 1 3 9 12 10 12 17 9 8 10 10 10 9 12 8 12 14 2 4 2 2 3 4 5 9 9 2 8 11 14 19 18 24 18 14 2 4 5 6 6 6 5 2
5 5 4 5 9 13 17 18 17 8 10 17 13 11 11 13 13 9 11 2 3 2 4 0 8 15 14 18 19 17 18 16 14 12 14 16 21 17 12 5 6 5 5 6 5
3 4 1 8 11 15 12 5 14 15 6 5 10 17 18 15 15 18 16 12 3 1 3 6 12 15 18 21 21 21 19 23 23 24 24 24 23 21 18 20 13 8 5 5 5
3 3 2 2 9 19 15 14 17 12 8 10 14 7 9 10 10 8 10 9 13 11 11 8 10 12 17 18 20 23 24 27 24 24 26 25 26 22 12 8 2 4 4 7 6
1 1 3 4 7 9 13 17 11 12 3 2 5 4 8 8 6 3 4 6 8 7 8 12 8 9 19 15 18 16 23 22 24 23 23 23 13 8 6 5 5 6 7 8 9
Wind_Direction
52 42 37 32 24 19 13 6 6 359 353 346 341 341 341 339 302 227 254 139 147 156 200 154 186 182 214 208 249 282 256 264 281 286 318 140 282 162 291 275 281 240 272 297 64
27 22 16 11 6 359 356 350 349 346 342 338 334 333 335 339 283 269 135 144 141 167 171 182 187 187 213 225 210 240 255 287 303 297 289 305 291 283 282 271 275 278 264 251 255
352 352 354 349 344 341 339 334 332 332 332 327 327 325 325 314 283 83 118 148 164 189 215 219 235 205 246 255 211 210 256 287 296 283 296 293 286 281 261 275 281 297 302 304 293
321 327 333 333 329 328 326 322 319 317 317 313 313 315 319 258 308 63 97 145 162 191 177 180 197 213 247 228 231 258 251 269 286 294 283 275 285 284 264 274 286 288 293 291 281
308 315 324 326 324 324 322 318 316 315 314 308 302 308 282 234 257 113 125 141 167 193 200 201 222 244 257 274 277 244 267 278 282 281 271 283 276 277 277 282 283 287 287 281 280
300 312 320 321 319 319 319 318 319 314 310 305 281 293 243 250 79 133 142 158 189 206 219 221 238 273 289 280 256 330 298 284 281 275 269 269 277 290 277 280 292 294 292 291 290
304 319 325 326 320 318 318 316 317 314 311 301 234 227 241 254 57 121 148 174 205 223 228 228 267 231 337 257 308 285 293 295 279 268 246 279 273 242 278 328 291 274 282 295 297
292 308 317 319 320 316 314 315 314 319 319 245 171 211 259 29 99 152 162 120 160 175 268 296 226 261 252 27 251 267 275 283 288 125 137 208 283 312 331 299 289 285 290 300 303
281 291 305 316 318 314 316 317 238 17 86 135 175 243 261 162 170 99 229 192 137 135 87 147 207 240 177 236 267 235 267 283 303 316 139 206 284 296 299 287 282 287 298 303 314
260 273 293 311 317 315 317 281 179 220 211 234 261 221 161 74 105 100 84 159 147 143 134 188 215 233 224 233 254 284 295 293 303 299 209 291 282 285 289 289 286 294 298 314 14
252 261 275 299 314 322 324 236 232 197 210 290 303 283 282 95 166 144 162 165 146 192 208 197 216 222 249 237 251 276 287 286 282 294 304 295 296 289 288 290 291 308 338 54 66
242 253 272 297 319 318 286 10 44 3 294 262 254 264 248 310 241 169 179 196 201 215 161 181 232 248 269 300 283 277 274 276 284 294 269 279 299 288 282 272 319 347 71 67 46
217 239 274 300 310 284 350 57 106 229 257 257 219 243 220 210 242 187 189 203 219 226 209 244 267 296 260 256 260 264 267 275 282 314 280 278 273 285 246 258 66 101 88 67 53
183 190 237 291 280 47 109 107 121 316 270 180 175 146 166 229 211 69 231 260 215 257 244 259 279 259 237 252 262 267 278 279 277 278 294 32 297 300 275 158 117 81 57 55 48
157 181 238 240 348 271 64 108 120 244 283 68 124 55 110 247 85 109 164 191 245 209 215 204 169 184 218 228 216 279 349 252 248 262 291 253 252 238 233 221 121 78 60 55 52
97 181 178 206 229 86 115 130 246 234 246 63 90 139 199 186 124 114 202 249 336 236 236 260 104 214 243 205 220 38 261 248 253 270 259 261 228 277 194 137 132 100 69 59 57
104 109 180 317 57 146 158 224 253 237 88 97 15 329 311 138 198 220 190 192 251 280 241 211 227 168 244 253 187 220 264 287 257 233 257 283 240 254 219 115 126 127 107 80 70
14 122 174 350 151 181 159 151 222 236 249 104 42 313 302 11 121 224 273 275 220 258 287 283 291 184 148 254 313 285 255 252 283 280 292 138 258 279 101 113 111 112 109 100 69
117 129 147 212 180 241 167 220 223 217 231 239 243 296 280 177 233 280 268 292 335 223 268 306 268 122 202 264 270 124 230 11 323 296 281 265 270 270 138 117 117 121 118 91 63
107 316 249 121 178 238 210 222 235 245 349 264 241 223 247 202 224 240 319 62 248 253 257 338 291 275 91 167 226 239 2 292 179 246 246 261 284 284 268 160 153 126 76 48 42
84 158 189 118 169 222 229 233 255 247 212 240 259 263 252 256 221 209 222 253 236 265 274 323 247 273 299 242 267 234 230 225 253 257 267 274 270 315 11 139 171 151 102 64 35
162 226 137 167 180 209 229 232 233 241 224 240 266 259 270 281 270 259 255 248 170 227 264 265 254 253 273 286 301 284 272 267 259 252 248 261 257 296 344 170 183 171 166 140 20
197 169 62 236 208 222 232 241 238 232 229 224 228 222 249 251 256 252 253 270 30 285 259 87 211 290 290 269 190 226 262 255 259 262 258 266 272 282 150 165 204 219 208 210 191
163 177 169 218 253 240 230 241 233 203 246 245 255 255 248 246 249 263 261 158 35 314 58 30 259 248 259 277 308 295 293 296 296 274 268 256 281 277 255 268 279 269 254 235 208
201 216 170 196 215 227 236 246 235 230 215 244 239 245 250 256 257 253 258 269 246 125 241 245 251 258 258 264 276 283 283 280 271 276 276 288 288 284 288 293 311 246 272 272 231
187 189 192 264 229 213 217 226 241 221 190 222 233 219 198 230 230 280 312 287 271 269 246 247 273 290 278 278 275 275 272 267 272 272 274 275 274 279 321 11 317 248 256 276 254
137 156 285 148 191 201 215 230 243 241 182 270 273 228 234 273 13 11 285 288 270 266 269 268 266 268 267 279 283 269 253 262 264 266 272 274 308 356 337 323 301 290 276 293 281